Location: Huppendorf
(49.9333°N, 11.1500°E)
Time: 00:24:37
(UTC+00:00)

Cosmos 1634 Rocket - Pass Details

Date: 27 February 2020
Orbit: 959 x 993 km, 82.9° (Epoch: 03 April)

Event Time Altitude Azimuth Distance (km) Brightness Sun altitude
Rises 18:50:36 0° 168° (SSE) 3,691 6.8 -19.6°
Reaches altitude 10° 18:53:11 10° 163° (SSE) 2,749 6.1 -20.0°
Maximum altitude 18:59:13 50° 91° (E) 1,255 4.1 -20.9°
Drops below altitude 10° 19:05:17 10° 18° (NNE) 2,767 6.3 -21.9°
Sets 19:07:53 0° 14° (NNE) 3,718 7.1 -22.3°
